GFSNE_prec_pwat_162.txt.gz
Precipitable_Water
0.34 0.37 0.40 0.42 0.44 0.45 0.46 0.45 0.40 0.33 0.37 0.49 0.50 0.62 0.63 0.70 0.79 0.83 0.87 0.87 0.91 0.94 1.01 1.07 1.17 1.18 1.27 1.44 1.42 1.42 1.50 1.44 1.42 1.38 1.33 1.41 1.53 1.55
0.25 0.28 0.35 0.40 0.41 0.43 0.44 0.46 0.46 0.42 0.37 0.49 0.51 0.55 0.63 0.69 0.77 0.82 0.87 0.86 0.92 0.95 0.97 1.07 1.15 1.17 1.14 1.23 1.24 1.24 1.45 1.51 1.48 1.47 1.38 1.34 1.40 1.46
0.17 0.18 0.20 0.27 0.33 0.39 0.42 0.44 0.45 0.46 0.42 0.47 0.52 0.59 0.60 0.62 0.69 0.78 0.84 0.84 0.87 0.91 0.98 0.99 1.02 1.11 1.18 1.26 1.28 1.36 1.34 1.42 1.52 1.50 1.48 1.36 1.32 1.39
0.15 0.15 0.15 0.18 0.22 0.32 0.38 0.39 0.42 0.45 0.44 0.42 0.48 0.53 0.54 0.59 0.64 0.71 0.80 0.86 0.88 0.87 0.91 0.94 0.95 0.96 1.02 1.16 1.24 1.22 1.29 1.37 1.44 1.49 1.45 1.48 1.36 1.31
0.14 0.15 0.15 0.15 0.16 0.20 0.27 0.34 0.38 0.43 0.44 0.43 0.45 0.51 0.53 0.56 0.60 0.68 0.72 0.76 0.85 0.85 0.88 0.90 0.93 0.93 0.99 1.10 1.13 1.21 1.23 1.29 1.33 1.39 1.37 1.50 1.48 1.40
0.14 0.15 0.15 0.15 0.15 0.17 0.18 0.21 0.27 0.36 0.42 0.44 0.46 0.49 0.50 0.54 0.58 0.61 0.66 0.70 0.79 0.78 0.78 0.83 0.85 0.89 0.92 0.97 1.07 1.17 1.18 1.16 1.21 1.27 1.28 1.32 1.33 1.49
0.14 0.14 0.15 0.14 0.15 0.16 0.17 0.19 0.20 0.26 0.35 0.41 0.43 0.46 0.48 0.53 0.52 0.57 0.62 0.65 0.69 0.70 0.74 0.78 0.79 0.79 0.86 0.90 1.04 1.05 1.06 1.06 1.09 1.13 1.21 1.27 1.33 1.33
0.13 0.14 0.15 0.14 0.12 0.14 0.15 0.18 0.21 0.20 0.24 0.34 0.41 0.43 0.45 0.51 0.53 0.57 0.60 0.62 0.62 0.73 0.77 0.66 0.76 0.74 0.78 0.81 0.83 0.88 0.97 1.01 1.03 1.00 1.02 1.12 1.18 1.25
0.16 0.14 0.14 0.14 0.14 0.13 0.12 0.14 0.17 0.21 0.22 0.28 0.32 0.41 0.45 0.47 0.50 0.50 0.56 0.58 0.57 0.62 0.61 0.67 0.72 0.71 0.74 0.78 0.80 0.84 0.88 0.94 0.96 0.98 1.01 1.03 1.08 1.14
0.18 0.17 0.15 0.14 0.14 0.13 0.12 0.12 0.12 0.16 0.18 0.23 0.27 0.32 0.41 0.47 0.49 0.51 0.51 0.54 0.58 0.60 0.61 0.59 0.63 0.67 0.71 0.76 0.75 0.79 0.79 0.80 0.82 0.84 0.86 0.89 0.92 0.97
0.17 0.19 0.17 0.15 0.15 0.13 0.12 0.11 0.12 0.14 0.15 0.18 0.22 0.25 0.31 0.35 0.44 0.47 0.47 0.47 0.47 0.50 0.53 0.57 0.57 0.61 0.63 0.67 0.70 0.73 0.73 0.72 0.73 0.76 0.77 0.80 0.84 0.90
0.17 0.17 0.18 0.17 0.16 0.14 0.12 0.11 0.10 0.12 0.15 0.14 0.14 0.17 0.20 0.27 0.28 0.33 0.38 0.42 0.42 0.43 0.47 0.47 0.51 0.52 0.53 0.58 0.62 0.63 0.62 0.64 0.65 0.67 0.68 0.72 0.74 0.78
0.17 0.17 0.18 0.17 0.17 0.15 0.14 0.13 0.12 0.12 0.12 0.16 0.14 0.13 0.14 0.17 0.22 0.24 0.27 0.28 0.28 0.35 0.44 0.47 0.46 0.47 0.51 0.51 0.51 0.53 0.54 0.55 0.57 0.59 0.62 0.63 0.66 0.70
0.18 0.18 0.18 0.17 0.16 0.16 0.14 0.13 0.12 0.12 0.12 0.11 0.14 0.14 0.12 0.12 0.14 0.17 0.20 0.20 0.22 0.25 0.29 0.32 0.37 0.38 0.39 0.41 0.39 0.41 0.45 0.46 0.49 0.51 0.53 0.56 0.58 0.61
0.18 0.18 0.17 0.16 0.15 0.14 0.15 0.13 0.12 0.11 0.11 0.11 0.11 0.13 0.15 0.16 0.13 0.12 0.14 0.15 0.18 0.18 0.18 0.22 0.24 0.25 0.26 0.28 0.29 0.30 0.28 0.33 0.34 0.36 0.39 0.44 0.47 0.48
0.16 0.16 0.15 0.15 0.15 0.14 0.13 0.13 0.12 0.12 0.11 0.11 0.11 0.12 0.12 0.13 0.13 0.15 0.12 0.11 0.11 0.12 0.15 0.18 0.19 0.19 0.20 0.19 0.18 0.21 0.25 0.24 0.24 0.25 0.28 0.32 0.35 0.39
0.15 0.14 0.13 0.12 0.12 0.12 0.12 0.12 0.12 0.12 0.11 0.11 0.10 0.11 0.11 0.11 0.11 0.12 0.13 0.14 0.11 0.10 0.10 0.11 0.13 0.17 0.17 0.18 0.16 0.16 0.15 0.16 0.19 0.21 0.22 0.23 0.26 0.28
0.13 0.12 0.12 0.11 0.11 0.11 0.11 0.11 0.12 0.11 0.11 0.11 0.10 0.10 0.10 0.10 0.10 0.11 0.11 0.11 0.11 0.12 0.12 0.11 0.11 0.10 0.11 0.11 0.13 0.12 0.13 0.14 0.15 0.15 0.16 0.17 0.20 0.25
0.12 0.12 0.11 0.11 0.10 0.10 0.10 0.10 0.10 0.11 0.11 0.10 0.10 0.09 0.10 0.09 0.09 0.09 0.09 0.09 0.10 0.10 0.11 0.12 0.12 0.12 0.10 0.09 0.11 0.12 0.11 0.11 0.11 0.11 0.13 0.14 0.14 0.16
0.12 0.11 0.10 0.10 0.10 0.09 0.09 0.09 0.10 0.10 0.10 0.10 0.09 0.09 0.09 0.08 0.08 0.08 0.08 0.08 0.08 0.09 0.09 0.10 0.10 0.10 0.11 0.10 0.11 0.11 0.13 0.12 0.11 0.11 0.11 0.12 0.12 0.13
0.11 0.10 0.10 0.10 0.09 0.09 0.08 0.09 0.09 0.09 0.09 0.09 0.08 0.08 0.08 0.07 0.07 0.07 0.07 0.07 0.08 0.08 0.08 0.08 0.09 0.10 0.10 0.10 0.09 0.09 0.10 0.11 0.12 0.12 0.12 0.11 0.10 0.10
0.10 0.10 0.10 0.10 0.09 0.09 0.08 0.08 0.08 0.08 0.08 0.08 0.08 0.08 0.07 0.07 0.06 0.06 0.06 0.06 0.07 0.07 0.07 0.08 0.09 0.09 0.08 0.08 0.08 0.08 0.08 0.09 0.10 0.11 0.11 0.12 0.11 0.09
0.10 0.09 0.09 0.08 0.08 0.08 0.07 0.07 0.07 0.07 0.07 0.07 0.07 0.07 0.06 0.06 0.06 0.06 0.06 0.06 0.06 0.06 0.06 0.06 0.07 0.07 0.07 0.07 0.07 0.08 0.08 0.09 0.09 0.09 0.09 0.11 0.11 0.12

GFSNE_prec_pwat_165.txt.gz
Precipitable_Water
0.19 0.20 0.22 0.29 0.34 0.39 0.40 0.39 0.35 0.32 0.35 0.45 0.45 0.54 0.56 0.60 0.63 0.66 0.67 0.65 0.70 0.76 0.85 0.94 0.98 1.06 1.15 1.21 1.21 1.26 1.23 1.35 1.53 1.53 1.49 1.49 1.48 1.56
0.17 0.17 0.17 0.20 0.25 0.33 0.37 0.37 0.38 0.36 0.33 0.42 0.44 0.50 0.54 0.58 0.60 0.64 0.65 0.67 0.68 0.75 0.83 0.87 0.94 0.97 1.05 1.08 1.13 1.18 1.21 1.22 1.38 1.52 1.50 1.48 1.48 1.47
0.16 0.16 0.16 0.17 0.18 0.22 0.27 0.30 0.32 0.35 0.34 0.39 0.45 0.49 0.52 0.54 0.58 0.63 0.66 0.66 0.67 0.74 0.81 0.85 0.85 0.93 0.97 1.06 1.17 1.14 1.20 1.19 1.23 1.36 1.38 1.47 1.46 1.47
0.15 0.16 0.15 0.16 0.16 0.17 0.19 0.22 0.27 0.32 0.34 0.34 0.42 0.46 0.50 0.53 0.55 0.59 0.61 0.66 0.66 0.68 0.72 0.84 0.86 0.85 0.87 0.95 1.06 1.13 1.15 1.27 1.26 1.28 1.34 1.36 1.47 1.47
0.16 0.16 0.15 0.15 0.15 0.15 0.16 0.17 0.20 0.28 0.33 0.33 0.37 0.44 0.49 0.52 0.53 0.56 0.59 0.62 0.66 0.72 0.70 0.73 0.82 0.81 0.86 0.89 0.95 1.04 1.08 1.19 1.22 1.22 1.22 1.33 1.46 1.47
0.17 0.17 0.17 0.16 0.16 0.16 0.15 0.15 0.15 0.17 0.26 0.31 0.34 0.39 0.44 0.49 0.51 0.50 0.52 0.58 0.60 0.66 0.74 0.73 0.77 0.77 0.83 0.87 0.88 0.91 0.95 1.03 1.15 1.25 1.21 1.26 1.33 1.39
0.17 0.17 0.17 0.16 0.16 0.17 0.17 0.16 0.15 0.14 0.15 0.18 0.29 0.35 0.39 0.43 0.45 0.48 0.48 0.52 0.54 0.58 0.62 0.64 0.73 0.73 0.77 0.80 0.85 0.85 0.88 0.96 1.01 1.08 1.15 1.22 1.28 1.31
0.16 0.16 0.16 0.16 0.14 0.15 0.15 0.17 0.17 0.14 0.13 0.13 0.14 0.24 0.36 0.41 0.45 0.47 0.48 0.47 0.47 0.56 0.59 0.61 0.69 0.72 0.72 0.73 0.74 0.82 0.84 0.93 1.02 1.10 1.12 1.10 1.15 1.26
0.18 0.16 0.16 0.16 0.14 0.14 0.13 0.13 0.14 0.16 0.17 0.16 0.13 0.15 0.25 0.39 0.44 0.45 0.46 0.46 0.45 0.50 0.52 0.54 0.61 0.65 0.66 0.65 0.71 0.72 0.76 0.84 0.89 0.94 1.01 0.98 1.02 1.05
0.19 0.18 0.17 0.16 0.14 0.13 0.12 0.12 0.12 0.13 0.15 0.16 0.17 0.17 0.20 0.29 0.41 0.45 0.46 0.47 0.48 0.50 0.52 0.47 0.57 0.58 0.63 0.69 0.66 0.71 0.73 0.77 0.78 0.87 0.88 0.91 0.92 0.96
0.18 0.19 0.18 0.17 0.16 0.14 0.12 0.11 0.11 0.12 0.14 0.15 0.16 0.18 0.18 0.21 0.28 0.40 0.42 0.42 0.40 0.44 0.48 0.48 0.50 0.53 0.58 0.61 0.65 0.63 0.65 0.71 0.68 0.74 0.75 0.77 0.81 0.84
0.18 0.19 0.18 0.18 0.16 0.15 0.13 0.12 0.11 0.11 0.11 0.11 0.12 0.14 0.16 0.16 0.19 0.22 0.27 0.30 0.38 0.39 0.43 0.43 0.45 0.49 0.50 0.56 0.58 0.61 0.63 0.65 0.69 0.71 0.72 0.71 0.72 0.75
0.18 0.17 0.18 0.17 0.17 0.16 0.15 0.13 0.12 0.13 0.12 0.12 0.12 0.12 0.14 0.17 0.16 0.18 0.18 0.21 0.24 0.26 0.34 0.39 0.41 0.45 0.47 0.47 0.50 0.51 0.55 0.57 0.62 0.65 0.67 0.70 0.69 0.66
0.17 0.17 0.17 0.17 0.16 0.16 0.15 0.14 0.13 0.13 0.12 0.12 0.11 0.11 0.11 0.13 0.17 0.18 0.16 0.16 0.19 0.22 0.26 0.26 0.30 0.31 0.33 0.38 0.36 0.39 0.42 0.45 0.50 0.52 0.55 0.58 0.61 0.61
0.17 0.16 0.16 0.15 0.15 0.15 0.15 0.14 0.14 0.13 0.12 0.11 0.11 0.11 0.12 0.13 0.14 0.15 0.18 0.17 0.15 0.15 0.18 0.25 0.25 0.25 0.26 0.25 0.25 0.32 0.33 0.33 0.36 0.39 0.41 0.44 0.48 0.50
0.15 0.14 0.14 0.14 0.14 0.14 0.14 0.14 0.14 0.13 0.13 0.12 0.12 0.12 0.12 0.12 0.12 0.13 0.13 0.14 0.16 0.14 0.15 0.16 0.18 0.22 0.24 0.20 0.20 0.22 0.23 0.27 0.29 0.28 0.29 0.35 0.39 0.41
0.14 0.14 0.13 0.13 0.12 0.12 0.13 0.13 0.13 0.13 0.12 0.12 0.11 0.11 0.11 0.10 0.10 0.11 0.11 0.12 0.12 0.13 0.15 0.15 0.15 0.15 0.16 0.16 0.19 0.18 0.20 0.20 0.21 0.24 0.26 0.25 0.28 0.30
0.13 0.12 0.12 0.12 0.12 0.11 0.11 0.12 0.12 0.12 0.11 0.11 0.11 0.10 0.10 0.09 0.09 0.09 0.10 0.10 0.10 0.11 0.11 0.12 0.14 0.15 0.14 0.14 0.13 0.13 0.14 0.16 0.18 0.19 0.18 0.18 0.21 0.25
0.12 0.12 0.12 0.11 0.11 0.10 0.10 0.10 0.10 0.11 0.11 0.10 0.10 0.09 0.09 0.09 0.08 0.08 0.09 0.09 0.09 0.09 0.10 0.10 0.11 0.11 0.11 0.13 0.15 0.14 0.12 0.13 0.13 0.14 0.15 0.16 0.16 0.17
0.13 0.12 0.11 0.11 0.10 0.10 0.09 0.09 0.10 0.10 0.10 0.09 0.09 0.09 0.08 0.08 0.07 0.07 0.07 0.08 0.08 0.08 0.08 0.09 0.09 0.10 0.10 0.10 0.11 0.13 0.15 0.14 0.13 0.12 0.12 0.13 0.13 0.15
0.11 0.11 0.11 0.10 0.10 0.09 0.09 0.09 0.09 0.09 0.09 0.09 0.08 0.08 0.07 0.07 0.07 0.07 0.07 0.07 0.07 0.07 0.07 0.07 0.08 0.09 0.09 0.10 0.09 0.10 0.11 0.13 0.15 0.15 0.14 0.13 0.12 0.11
0.11 0.10 0.10 0.09 0.09 0.08 0.08 0.08 0.08 0.08 0.08 0.08 0.08 0.07 0.07 0.07 0.06 0.06 0.06 0.06 0.06 0.06 0.06 0.07 0.08 0.08 0.08 0.08 0.08 0.09 0.10 0.11 0.12 0.13 0.14 0.14 0.13 0.11
0.10 0.09 0.08 0.08 0.08 0.07 0.07 0.07 0.07 0.07 0.07 0.07 0.08 0.07 0.07 0.06 0.07 0.06 0.06 0.06 0.06 0.06 0.06 0.06 0.06 0.07 0.07 0.07 0.07 0.08 0.09 0.09 0.10 0.11 0.12 0.14 0.14 0.14

GFSNE_prec_pwat_168.txt.gz
Precipitable_Water
0.20 0.19 0.19 0.20 0.23 0.26 0.29 0.30 0.28 0.26 0.31 0.40 0.41 0.49 0.51 0.56 0.57 0.59 0.61 0.61 0.62 0.63 0.66 0.69 0.78 0.89 0.96 1.06 1.14 1.26 1.39 1.54 1.49 1.57 1.60 1.63 1.47 1.57
0.19 0.19 0.18 0.19 0.21 0.21 0.23 0.26 0.29 0.28 0.27 0.36 0.40 0.46 0.50 0.53 0.57 0.59 0.60 0.60 0.60 0.61 0.64 0.69 0.72 0.83 0.93 1.01 1.08 1.20 1.10 1.20 1.27 1.35 1.38 1.42 1.53 1.52
0.19 0.19 0.18 0.20 0.20 0.20 0.20 0.20 0.22 0.26 0.26 0.32 0.38 0.43 0.47 0.50 0.54 0.59 0.60 0.59 0.58 0.60 0.63 0.69 0.70 0.74 0.83 0.94 1.03 1.08 1.12 1.21 1.18 1.15 1.15 1.17 1.30 1.42
0.20 0.20 0.18 0.20 0.19 0.19 0.18 0.18 0.18 0.21 0.23 0.26 0.33 0.37 0.41 0.48 0.52 0.55 0.56 0.57 0.57 0.59 0.63 0.67 0.72 0.72 0.75 0.80 0.90 0.98 1.07 1.09 1.07 1.10 1.11 1.01 1.08 1.25
0.19 0.19 0.18 0.18 0.18 0.18 0.19 0.18 0.17 0.19 0.19 0.22 0.26 0.33 0.36 0.42 0.47 0.52 0.53 0.53 0.55 0.58 0.61 0.63 0.67 0.71 0.72 0.75 0.78 0.85 0.93 1.02 1.04 1.09 1.12 1.06 1.08 1.13
0.20 0.20 0.19 0.17 0.17 0.17 0.18 0.17 0.17 0.18 0.18 0.17 0.18 0.25 0.31 0.35 0.41 0.45 0.47 0.51 0.50 0.54 0.59 0.60 0.65 0.65 0.69 0.77 0.72 0.76 0.76 0.86 0.96 1.00 1.10 1.11 1.15 1.21
0.20 0.20 0.19 0.17 0.16 0.16 0.16 0.16 0.16 0.15 0.16 0.16 0.15 0.15 0.23 0.29 0.32 0.40 0.45 0.49 0.49 0.50 0.53 0.56 0.62 0.67 0.67 0.73 0.73 0.70 0.80 0.78 0.85 0.93 1.01 1.10 1.14 1.19
0.20 0.20 0.19 0.17 0.16 0.16 0.15 0.15 0.15 0.14 0.14 0.14 0.15 0.14 0.15 0.24 0.31 0.35 0.40 0.43 0.42 0.50 0.48 0.49 0.57 0.59 0.64 0.66 0.73 0.70 0.70 0.71 0.77 0.80 0.91 1.06 1.05 1.14
0.21 0.20 0.19 0.18 0.16 0.15 0.15 0.15 0.15 0.15 0.15 0.15 0.14 0.14 0.14 0.16 0.25 0.32 0.36 0.40 0.41 0.45 0.46 0.45 0.52 0.50 0.57 0.61 0.68 0.65 0.67 0.75 0.71 0.77 0.77 0.83 0.90 1.01
0.20 0.20 0.19 0.17 0.15 0.15 0.13 0.13 0.14 0.15 0.14 0.15 0.15 0.15 0.15 0.16 0.17 0.25 0.35 0.40 0.43 0.44 0.45 0.41 0.46 0.47 0.53 0.56 0.61 0.62 0.63 0.69 0.76 0.75 0.74 0.82 0.86 0.93
0.20 0.19 0.18 0.18 0.16 0.15 0.14 0.13 0.13 0.13 0.15 0.14 0.15 0.15 0.15 0.15 0.16 0.15 0.19 0.31 0.36 0.39 0.42 0.41 0.42 0.44 0.49 0.50 0.57 0.58 0.58 0.60 0.68 0.68 0.78 0.75 0.82 0.89
0.20 0.21 0.18 0.17 0.17 0.15 0.14 0.14 0.12 0.14 0.14 0.14 0.15 0.15 0.15 0.14 0.15 0.16 0.15 0.17 0.21 0.27 0.33 0.37 0.39 0.41 0.40 0.47 0.48 0.50 0.54 0.57 0.60 0.61 0.65 0.63 0.70 0.77
0.20 0.20 0.19 0.17 0.16 0.16 0.15 0.15 0.14 0.16 0.16 0.16 0.15 0.15 0.15 0.14 0.14 0.15 0.18 0.16 0.17 0.19 0.24 0.30 0.30 0.35 0.39 0.41 0.46 0.45 0.50 0.50 0.54 0.58 0.64 0.67 0.66 0.66
0.19 0.19 0.18 0.16 0.15 0.15 0.15 0.15 0.15 0.16 0.16 0.15 0.15 0.14 0.14 0.14 0.14 0.15 0.15 0.20 0.20 0.18 0.21 0.23 0.26 0.28 0.28 0.31 0.33 0.38 0.43 0.43 0.44 0.49 0.55 0.61 0.63 0.62
0.17 0.15 0.15 0.15 0.15 0.16 0.15 0.15 0.16 0.15 0.15 0.14 0.14 0.14 0.15 0.15 0.15 0.15 0.16 0.16 0.18 0.20 0.18 0.19 0.22 0.22 0.27 0.28 0.26 0.29 0.29 0.36 0.37 0.37 0.44 0.48 0.50 0.53
0.17 0.16 0.14 0.15 0.16 0.16 0.16 0.16 0.16 0.15 0.15 0.14 0.14 0.15 0.15 0.14 0.13 0.13 0.13 0.14 0.15 0.15 0.17 0.19 0.20 0.20 0.19 0.20 0.23 0.25 0.24 0.26 0.28 0.33 0.36 0.38 0.43 0.45
0.16 0.15 0.15 0.15 0.15 0.15 0.15 0.15 0.15 0.15 0.14 0.14 0.13 0.13 0.13 0.12 0.12 0.12 0.12 0.12 0.12 0.11 0.13 0.14 0.16 0.19 0.20 0.18 0.17 0.18 0.21 0.23 0.22 0.25 0.26 0.31 0.35 0.35
0.15 0.14 0.15 0.15 0.14 0.13 0.13 0.13 0.14 0.13 0.13 0.12 0.12 0.11 0.11 0.10 0.10 0.10 0.10 0.11 0.10 0.10 0.10 0.11 0.12 0.14 0.15 0.18 0.19 0.16 0.16 0.16 0.19 0.22 0.24 0.25 0.24 0.27
0.14 0.15 0.15 0.14 0.13 0.12 0.12 0.12 0.12 0.12 0.12 0.11 0.11 0.10 0.10 0.10 0.09 0.09 0.09 0.09 0.09 0.09 0.09 0.09 0.10 0.10 0.11 0.11 0.15 0.18 0.17 0.17 0.16 0.16 0.17 0.17 0.19 0.23
0.15 0.14 0.14 0.13 0.11 0.11 0.10 0.10 0.11 0.11 0.10 0.10 0.10 0.10 0.10 0.09 0.09 0.08 0.08 0.08 0.08 0.08 0.08 0.08 0.08 0.09 0.09 0.10 0.11 0.14 0.15 0.15 0.17 0.17 0.16 0.16 0.17 0.18
0.14 0.13 0.12 0.11 0.11 0.10 0.10 0.09 0.09 0.09 0.09 0.09 0.09 0.09 0.09 0.09 0.08 0.08 0.08 0.08 0.07 0.07 0.07 0.07 0.07 0.08 0.09 0.10 0.10 0.11 0.13 0.14 0.15 0.14 0.16 0.17 0.16 0.15
0.14 0.12 0.10 0.10 0.10 0.09 0.09 0.09 0.09 0.09 0.09 0.09 0.09 0.09 0.09 0.09 0.08 0.08 0.08 0.07 0.07 0.07 0.07 0.07 0.08 0.08 0.08 0.07 0.08 0.09 0.11 0.12 0.13 0.14 0.15 0.16 0.15 0.14
0.12 0.10 0.09 0.09 0.09 0.09 0.08 0.09 0.08 0.09 0.09 0.09 0.09 0.09 0.09 0.08 0.08 0.08 0.08 0.08 0.07 0.06 0.07 0.07 0.07 0.08 0.08 0.07 0.07 0.09 0.09 0.10 0.11 0.12 0.14 0.15 0.17 0.17

GFSNE_prec_pwat_171.txt.gz
Precipitable_Water
0.22 0.22 0.22 0.22 0.24 0.25 0.25 0.24 0.21 0.18 0.22 0.33 0.36 0.44 0.48 0.53 0.55 0.58 0.60 0.58 0.56 0.57 0.58 0.60 0.62 0.65 0.65 0.75 0.86 0.94 1.08 1.17 1.42 1.41 1.46 1.50 1.65 1.49
0.22 0.22 0.22 0.23 0.24 0.24 0.24 0.24 0.24 0.20 0.17 0.27 0.32 0.38 0.42 0.48 0.54 0.57 0.58 0.59 0.58 0.56 0.57 0.58 0.60 0.63 0.65 0.67 0.78 0.90 1.00 1.06 1.13 1.10 1.24 1.40 1.47 1.49
0.24 0.23 0.22 0.24 0.24 0.23 0.23 0.23 0.22 0.22 0.20 0.20 0.27 0.33 0.35 0.39 0.46 0.53 0.56 0.56 0.57 0.57 0.56 0.57 0.59 0.61 0.65 0.69 0.74 0.82 0.90 0.98 1.13 1.08 1.10 1.21 1.32 1.40
0.23 0.22 0.20 0.21 0.21 0.22 0.21 0.20 0.20 0.22 0.22 0.19 0.21 0.24 0.29 0.33 0.37 0.43 0.50 0.52 0.53 0.56 0.56 0.56 0.58 0.61 0.65 0.68 0.73 0.78 0.82 0.90 0.91 1.14 1.08 1.03 0.96 1.03
0.22 0.21 0.19 0.19 0.18 0.18 0.20 0.18 0.18 0.20 0.21 0.21 0.19 0.20 0.25 0.30 0.33 0.36 0.43 0.47 0.50 0.53 0.54 0.55 0.56 0.59 0.64 0.68 0.68 0.72 0.77 0.83 0.88 0.94 1.03 1.12 1.05 0.93
0.22 0.22 0.19 0.18 0.17 0.16 0.17 0.17 0.17 0.18 0.19 0.19 0.18 0.17 0.17 0.25 0.30 0.30 0.32 0.41 0.44 0.49 0.52 0.53 0.54 0.57 0.60 0.63 0.69 0.71 0.70 0.73 0.83 0.87 0.94 0.98 1.06 1.14
0.23 0.22 0.21 0.19 0.18 0.16 0.15 0.15 0.15 0.15 0.15 0.16 0.15 0.14 0.14 0.14 0.19 0.28 0.30 0.33 0.40 0.43 0.47 0.49 0.50 0.54 0.57 0.59 0.61 0.64 0.69 0.71 0.72 0.76 0.82 0.85 0.94 1.02
0.23 0.23 0.22 0.18 0.18 0.17 0.16 0.16 0.15 0.13 0.13 0.14 0.14 0.12 0.13 0.13 0.15 0.21 0.28 0.29 0.28 0.38 0.41 0.46 0.49 0.48 0.53 0.59 0.61 0.61 0.63 0.77 0.75 0.70 0.71 0.79 0.85 0.91
0.23 0.23 0.21 0.19 0.17 0.18 0.17 0.17 0.17 0.16 0.15 0.15 0.13 0.13 0.13 0.13 0.14 0.14 0.19 0.27 0.30 0.33 0.36 0.40 0.45 0.45 0.49 0.52 0.57 0.63 0.60 0.61 0.66 0.66 0.71 0.67 0.71 0.79
0.21 0.20 0.20 0.18 0.16 0.17 0.16 0.15 0.17 0.17 0.16 0.16 0.15 0.15 0.15 0.15 0.15 0.16 0.16 0.21 0.28 0.33 0.33 0.32 0.40 0.42 0.47 0.48 0.51 0.57 0.58 0.59 0.62 0.68 0.64 0.76 0.71 0.72
0.22 0.20 0.18 0.18 0.16 0.16 0.15 0.15 0.15 0.17 0.18 0.18 0.18 0.18 0.17 0.16 0.15 0.15 0.13 0.13 0.14 0.20 0.21 0.28 0.33 0.38 0.44 0.45 0.47 0.49 0.54 0.58 0.58 0.65 0.64 0.61 0.64 0.70
0.23 0.23 0.19 0.17 0.16 0.15 0.16 0.15 0.13 0.15 0.17 0.18 0.18 0.18 0.18 0.17 0.17 0.16 0.15 0.12 0.14 0.14 0.15 0.20 0.26 0.32 0.34 0.43 0.44 0.44 0.48 0.51 0.55 0.58 0.59 0.63 0.71 0.67
0.22 0.22 0.20 0.16 0.16 0.16 0.16 0.15 0.15 0.18 0.18 0.18 0.18 0.18 0.17 0.17 0.16 0.17 0.16 0.16 0.12 0.14 0.17 0.19 0.23 0.25 0.28 0.31 0.34 0.36 0.42 0.43 0.45 0.50 0.54 0.56 0.61 0.64
0.21 0.20 0.18 0.15 0.15 0.16 0.16 0.16 0.17 0.18 0.18 0.17 0.17 0.16 0.16 0.16 0.16 0.17 0.18 0.17 0.17 0.15 0.15 0.19 0.19 0.22 0.23 0.23 0.28 0.32 0.34 0.40 0.41 0.44 0.50 0.52 0.56 0.60
0.17 0.15 0.15 0.15 0.16 0.18 0.17 0.17 0.18 0.17 0.17 0.16 0.15 0.15 0.16 0.16 0.17 0.16 0.18 0.18 0.18 0.17 0.15 0.15 0.20 0.21 0.21 0.22 0.21 0.24 0.27 0.31 0.33 0.36 0.42 0.45 0.47 0.50
0.19 0.19 0.17 0.17 0.18 0.19 0.19 0.18 0.17 0.17 0.16 0.15 0.15 0.16 0.16 0.15 0.14 0.15 0.14 0.15 0.15 0.14 0.14 0.14 0.15 0.18 0.19 0.20 0.21 0.20 0.21 0.25 0.28 0.30 0.33 0.38 0.41 0.43
0.18 0.19 0.18 0.18 0.18 0.18 0.18 0.17 0.17 0.16 0.15 0.15 0.15 0.14 0.14 0.13 0.13 0.13 0.13 0.13 0.12 0.11 0.11 0.11 0.13 0.16 0.18 0.18 0.17 0.20 0.21 0.20 0.21 0.25 0.26 0.29 0.33 0.37
0.19 0.17 0.17 0.18 0.17 0.16 0.15 0.15 0.15 0.14 0.13 0.13 0.13 0.12 0.12 0.11 0.11 0.11 0.11 0.11 0.10 0.10 0.10 0.10 0.10 0.11 0.14 0.17 0.18 0.16 0.17 0.20 0.21 0.20 0.21 0.22 0.25 0.31
0.17 0.17 0.17 0.18 0.16 0.14 0.13 0.12 0.11 0.12 0.12 0.11 0.11 0.11 0.11 0.11 0.10 0.10 0.10 0.09 0.09 0.09 0.09 0.09 0.09 0.09 0.09 0.10 0.13 0.17 0.15 0.16 0.17 0.20 0.20 0.18 0.18 0.21
0.15 0.16 0.17 0.16 0.14 0.12 0.11 0.10 0.11 0.11 0.11 0.10 0.10 0.10 0.10 0.10 0.09 0.09 0.09 0.08 0.08 0.08 0.08 0.08 0.08 0.08 0.08 0.09 0.11 0.13 0.16 0.15 0.14 0.15 0.16 0.19 0.21 0.20
0.15 0.16 0.16 0.14 0.13 0.11 0.12 0.11 0.11 0.10 0.10 0.10 0.10 0.10 0.10 0.10 0.09 0.09 0.09 0.09 0.08 0.07 0.07 0.07 0.08 0.09 0.09 0.09 0.09 0.10 0.13 0.14 0.15 0.14 0.15 0.15 0.15 0.18
0.18 0.16 0.14 0.12 0.12 0.11 0.11 0.11 0.11 0.11 0.10 0.10 0.10 0.10 0.10 0.10 0.09 0.09 0.09 0.09 0.08 0.08 0.07 0.08 0.09 0.08 0.08 0.07 0.07 0.09 0.11 0.11 0.13 0.15 0.17 0.16 0.15 0.13
0.17 0.15 0.12 0.12 0.11 0.11 0.10 0.11 0.10 0.10 0.10 0.10 0.10 0.10 0.10 0.09 0.10 0.10 0.09 0.09 0.08 0.08 0.07 0.08 0.08 0.09 0.08 0.08 0.08 0.09 0.09 0.09 0.10 0.11 0.13 0.15 0.16 0.17